Regional Weather Roundup
Issued by NWS

Home | Current Version | Previous Version | Text Only | Print | Product List | Glossary On
Versions: 1 2 3 4 5 6 7 8 9 10 11 12 13 14 15 16 17 18 19 20 21 22 23 24 25 26 27 28 29 30 31 32 33 34 35 36 37 38 39 40 41 42 43 44 45 46 47 48 49 50
000
ASUS46 KSEW 190610
RWRWA

WASHINGTON REGIONAL WEATHER ROUNDUP
NATIONAL WEATHER SERVICE SEATTLE WA
1000 PM PST SUN FEB 18 2018

NOTE:"FAIR" INDICATES FEW OR NO CLOUDS BELOW 12,000 FEET WITH NO
SIGNIFICANT WEATHER AND/OR OBSTRUCTIONS TO VISIBILITY.

WAZ507-509-555>559-190700-
SEATTLE, TACOMA, EVERETT, AND VICINITY

CITY           SKY/WX    TMP DP  RH WIND       PRES   REMARKS
EVERETT        CLOUDY    29  18  63 W15G23    29.93R WCI  18
6HR MIN TEMP:  29; 6HR MAX TEMP:  35;

BOEING FIELD   MOCLDY    32  16  51 NW12G25   29.97R WCI  23
6HR MIN TEMP:  32; 6HR MAX TEMP:  38;

RENTON         CLOUDY    33  20  58 NW20G26   29.96R WCI  21
6HR MIN TEMP:  33; 6HR MAX TEMP:  39;

SEATAC AIRPORT MOCLDY    30  15  53 NW16      29.94R WCI  19
6HR MIN TEMP:  30; 6HR MAX TEMP:  36;

JBLM-MCCHORD   CLOUDY    31  18  59 NE17G28   29.93R WCI  19
6HR MIN TEMP:  31; 6HR MAX TEMP:  35;

PUYALLUP       CLOUDY    30  19  64 CALM      29.93R
BREMERTON      NOT AVBL
JBLM-FT LEWIS  CLOUDY    31  17  56 N14G20    29.93R WCI  21
6HR MIN TEMP:  31; 6HR MAX TEMP:  35;

TACOMA NARROWS CLOUDY    30  12  47 N15G25    29.93R WCI  19
6HR MIN TEMP:  30; 6HR MAX TEMP:  34;

$$

WAZ001-503-506-510-514-515-190700-
NORTH INTERIOR

CITY           SKY/WX    TMP DP  RH WIND       PRES   REMARKS
BELLINGHAM     CLEAR     27   8  44 N25G36    30.02R WCI  12
6HR MIN TEMP:  27; 6HR MAX TEMP:  31;

FRIDAY HARBOR  CLEAR     29   7  39 N23G37    30.05R WCI  15
6HR MIN TEMP:  29; 6HR MAX TEMP:  33;

EASTSOUND      CLEAR     32  10  40 N13G29    30.05R WCI  22
PORT ANGELES   CLEAR     31   9  39 E7G20     30.08R
6HR MIN TEMP:  30; 6HR MAX TEMP:  34;

EDIZ HOOK      FAIR      32  14  47 N18G25    30.09R WCI  20
6HR MIN TEMP:  32; 6HR MAX TEMP:  35;

PORT TOWNSEND  CLOUDY    30  16  55 W12G18    30.02R WCI  21
NAS WHIDBEY    PTCLDY    30  13  49 N8        30.04R
6HR MIN TEMP:  30; 6HR MAX TEMP:  36;

ARLINGTON      LGT SNOW  27  21  80 N13       29.97R WCI  16
6HR MIN TEMP:  27; 6HR MAX TEMP:  35; 6HR PCP: TRACE;

BURLINGTON     CLEAR     28  14  54 N5G14     30.00R
$$

WAZ020-022-039-040-504-511-512-190700-
SOUTHWEST INTERIOR

CITY           SKY/WX    TMP DP  RH WIND       PRES   REMARKS
SHELTON        CLEAR     27  18  69 CALM      29.91R
6HR MIN TEMP:  26; 6HR MAX TEMP:  41;

OLYMPIA        MOCLDY    31  13  47 NE9       29.94R
6HR MIN TEMP:  31; 6HR MAX TEMP:  37;

CHEHALIS       FAIR      30  19  64 NE12      29.93R WCI  21
KELSO          PTCLDY    30  24  78 N8        29.90R
6HR MIN TEMP:  30; 6HR MAX TEMP:  36; 6HR PCP: TRACE;

VANCOUVER      LGT SNOW  32  32 100 NW7       29.88R FOG
6HR MIN TEMP:  33; 6HR MAX TEMP:  40; 6HR PCP:  0.04;

SCAPPOOSE, OR  CLOUDY    32  25  75 N10       29.87R WCI  24
6HR MIN TEMP:  32; 6HR MAX TEMP:  41; 6HR PCP: TRACE;

PORTLAND, OR   LGT SNOW  33  32  96 NW9       29.87R VSB 1
6HR MIN TEMP:  33; 6HR MAX TEMP:  40; 6HR PCP:  0.10;

$$

WAZ021-516-517-190700-
WASHINGTON COAST

CITY           SKY/WX    TMP DP  RH WIND       PRES   REMARKS
FORKS          CLEAR     31  13  47 NE13G21   29.99R WCI  21
6HR MIN TEMP:  30; 6HR MAX TEMP:  35;

HOQUIAM        CLOUDY    33  26  75 E7        29.93R
6HR MIN TEMP:  33; 6HR MAX TEMP:  42; 6HR PCP: TRACE;

ASTORIA, OR    CLOUDY    34  20  56 NE15      29.91R WCI  24
6HR MIN TEMP:  33; 6HR MAX TEMP:  44; 6HR PCP: TRACE;

$$

WAZ019-023-024-040-567>569-190700-
CASCADE MOUNTAINS AND COLUMBIA GORGE

CITY           SKY/WX    TMP DP  RH WIND       PRES   REMARKS
STAMPEDE PASS  NOT AVBL
TROUTDALE, OR  CLOUDY    35  31  85 VRB3      29.86R
6HR MIN TEMP:  34; 6HR MAX TEMP:  38; 6HR PCP:  0.18;

HOOD RIVER, OR LGT SNOW  30  27  86 CALM      29.91R
THE DALLES, OR CLOUDY    32  27  81 E7        29.92R
6HR MIN TEMP:  31; 6HR MAX TEMP:  40; 6HR PCP:  0.04;

$$

WAZ026-027-041>044-520-521-190700-
EAST SLOPES

CITY           SKY/WX    TMP DP  RH WIND       PRES   REMARKS
OMAK           CLOUDY    22  11  62 N12       29.98R WCI  10
6HR MIN TEMP:  22; 6HR MAX TEMP:  25;

WENATCHEE      CLOUDY    26   8  46 VRB6      29.95R
6HR MIN TEMP:  26; 6HR MAX TEMP:  28;

ELLENSBURG     CLOUDY    27   9  46 NE7       29.87R
6HR MIN TEMP:  27; 6HR MAX TEMP:  32;

YAKIMA         CLOUDY    30  12  47 NE12G21   29.92R WCI  20
6HR MIN TEMP:  30; 6HR MAX TEMP:  32; 6HR PCP: TRACE;

SUNNYSIDE ARPT CLOUDY    27  13  57 N31G39    29.88R WCI  10
6HR MIN TEMP:  27; 6HR MAX TEMP:  31;

YAKIMA TC      CLOUDY    26   9  49 NE18G24   29.87R WCI  13
6HR MIN TEMP:  26; 6HR MAX TEMP:  29;

$$

WAZ028-034-035-190700-
COLUMBIA BASIN

CITY           SKY/WX    TMP DP  RH WIND       PRES   REMARKS
EPHRATA        MOCLDY    24   8  50 N21       29.92R WCI   9
6HR MIN TEMP:  24; 6HR MAX TEMP:  29;

MOSES LAKE     PTCLDY    23  14  68 N16       29.92R WCI  10
6HR MIN TEMP:  23; 6HR MAX TEMP:  30;

PASCO          MOCLDY    28  12  51 N18       29.93R WCI  15
6HR MIN TEMP:  27; 6HR MAX TEMP:  38;

RICHLAND ARPT  MOCLDY    28  19  69 NW14      29.95R WCI  17
6HR MIN TEMP:  28; 6HR MAX TEMP:  37;

HERMISTON, OR  CLOUDY    29  14  53 N22G32    29.88R WCI  15
6HR MIN TEMP:  29; 6HR MAX TEMP:  37; 6HR PCP: TRACE;

$$

WAZ036>038-190700-
NORTHEAST WASHINGTON

CITY           SKY/WX    TMP DP  RH WIND       PRES   REMARKS
SPOKANE GEIGER MOCLDY    14   3  61 NE16      29.83R WCI  -2
6HR MIN TEMP:  14; 6HR MAX TEMP:  22;

SPOKANE FELTS  MOCLDY    19   7  59 N8        29.87R
6HR MIN TEMP:  19; 6HR MAX TEMP:  24;

FAIRCHILD AFB  CLOUDY    14   2  58 NE20      29.81R WCI  -3
6HR MIN TEMP:  14; 6HR MAX TEMP:  20;

COEURDALENE,ID MOCLDY    13   4  67 NE20      29.86R WCI  -5
6HR MIN TEMP:  13; 6HR MAX TEMP:  19; 6HR PCP: TRACE;

DEER PARK      MOCLDY    14   2  58 NE15      29.89R WCI  -1
6HR MIN TEMP:  14; 6HR MAX TEMP:  21;

$$

WAZ029>033-190700-
SOUTHEAST WASHINGTON

CITY           SKY/WX    TMP DP  RH WIND       PRES   REMARKS
PULLMAN        CLOUDY    23  19  85 CALM      29.73R
6HR MIN TEMP:  19; 6HR MAX TEMP:  26; 6HR PCP: TRACE;

LEWISTON, ID   CLOUDY    30  26  85 W8        29.75R
6HR MIN TEMP:  29; 6HR MAX TEMP:  35;

WALLA WALLA    MOCLDY    26  20  77 N13       29.80R WCI  15
6HR MIN TEMP:  26; 6HR MAX TEMP:  37;

PENDLETON, OR  FLURRIES  24  17  74 N18       29.80R WCI  10
6HR MIN TEMP:  24; 6HR MAX TEMP:  36; 6HR PCP:  0.03;

$$



USA.gov is the U.S. government's official web portal to all federal, state and local government web resources and services.